Location: Del Amo
(33.8464°N, 118.2104°W)
Time: 15:31:37
(UTC+00:00)

Tiros 1 despin weight - Pass Details

Date: 13 September 2024
Orbit: 573 x 615 km, 48.2° (Epoch: 04 October)

Event Time Altitude Azimuth Distance (km) Brightness Sun altitude
Exits shadow 11:32:02 51° 356° (N) 780 ? -25.6°
Drops below altitude 10° 11:35:56 10° 44° (NE) 1,983 ? -24.8°
Sets 11:38:18 0° 49° (NE) 2,892 ? -24.4°
